DAL691 KATL-KFLL

Flight info

Callsign DAL691
Flight time 1h 31m
Altitude 41000
Route SMLTZ3 WALET ZPLEN TEEKY4
Aircraft A333/H-SDE3GHIJ2J3J5M1RVWXY/LB2D1

Departure

Time 2026-05-03 21:51
Airport Hartsfield Jackson Atlanta International Airport (KATL)

Arrival

Time 2026-05-03 23:22
Airport Fort Lauderdale Hollywood International Airport (KFLL)
Time Latitude Longitude Altitude Speed Heading
2026-05-03 21:30 33.63942 -84.42634 1007 ft 0 kts 90°
2026-05-03 21:39 33.63942 -84.42635 1007 ft 1 kts 90°
2026-05-03 21:39 33.63942 -84.42664 1008 ft 1 kts 90°
2026-05-03 21:39 33.63942 -84.42677 1008 ft 1 kts 94°
2026-05-03 21:39 33.63943 -84.42688 1008 ft 1 kts 105°
2026-05-03 21:40 33.63946 -84.42699 1008 ft 1 kts 122°
2026-05-03 21:40 33.63951 -84.42706 1008 ft 1 kts 136°
2026-05-03 21:40 33.63956 -84.42712 1008 ft 1 kts 151°
2026-05-03 21:40 33.63963 -84.42716 1008 ft 1 kts 165°
2026-05-03 21:41 33.63969 -84.42718 1008 ft 0 kts 175°
2026-05-03 21:42 33.63968 -84.42718 1008 ft 0 kts 180°
2026-05-03 21:42 33.63957 -84.42725 1008 ft 3 kts 206°
2026-05-03 21:42 33.63935 -84.42733 1008 ft 0 kts 189°
2026-05-03 21:42 33.63916 -84.42733 1008 ft 9 kts 181°
2026-05-03 21:43 33.63855 -84.42733 1008 ft 7 kts 180°
2026-05-03 21:43 33.63800 -84.42733 1007 ft 8 kts 179°
2026-05-03 21:43 33.63737 -84.42733 1006 ft 9 kts 180°
2026-05-03 21:43 33.63674 -84.42722 1006 ft 9 kts 146°
2026-05-03 21:44 33.63655 -84.42652 1005 ft 9 kts 94°
2026-05-03 21:44 33.63654 -84.42571 1003 ft 10 kts 90°
2026-05-03 21:44 33.63654 -84.42460 1000 ft 17 kts 90°
2026-05-03 21:44 33.63654 -84.42284 994 ft 24 kts 90°
2026-05-03 21:45 33.63653 -84.42060 985 ft 28 kts 90°
2026-05-03 21:45 33.63653 -84.41807 973 ft 32 kts 90°
2026-05-03 21:45 33.63654 -84.41534 968 ft 33 kts 89°
2026-05-03 21:45 33.63655 -84.41277 967 ft 25 kts 89°
2026-05-03 21:46 33.63656 -84.41071 965 ft 19 kts 90°
2026-05-03 21:46 33.63656 -84.40952 962 ft 14 kts 90°
2026-05-03 21:46 33.63655 -84.40820 957 ft 16 kts 95°
2026-05-03 21:46 33.63597 -84.40743 952 ft 10 kts 171°
2026-05-03 21:47 33.63580 -84.40743 952 ft 0 kts 179°
2026-05-03 21:47 33.63556 -84.40743 952 ft 16 kts 180°
2026-05-03 21:48 33.63490 -84.40755 953 ft 6 kts 222°
2026-05-03 21:48 33.63472 -84.40821 956 ft 0 kts 267°
2026-05-03 21:48 33.63472 -84.40825 956 ft 0 kts 270°
2026-05-03 21:50 33.63471 -84.40955 962 ft 47 kts 270°
2026-05-03 21:50 33.63471 -84.41647 970 ft 118 kts 270°
2026-05-03 21:51 33.63469 -84.42853 1090 ft 165 kts 269°
2026-05-03 21:51 33.63464 -84.44190 1891 ft 156 kts 268°
2026-05-03 21:51 33.63460 -84.45461 2636 ft 156 kts 271°
2026-05-03 21:51 33.63463 -84.46752 3073 ft 162 kts 272°
2026-05-03 21:52 33.63466 -84.48153 3409 ft 176 kts 272°
2026-05-03 21:52 33.63469 -84.49728 3730 ft 199 kts 272°
2026-05-03 21:52 33.63467 -84.51439 4212 ft 217 kts 271°
2026-05-03 21:52 33.63052 -84.53246 4716 ft 239 kts 240°
2026-05-03 21:53 33.61798 -84.54647 5251 ft 261 kts 210°
2026-05-03 21:53 33.59984 -84.55182 5842 ft 279 kts 180°
2026-05-03 21:53 33.58119 -84.54616 6678 ft 285 kts 152°
2026-05-03 21:53 33.56595 -84.53116 7504 ft 289 kts 135°
2026-05-03 21:54 33.54957 -84.51668 8267 ft 296 kts 150°
2026-05-03 21:54 33.53160 -84.50452 9114 ft 300 kts 152°
2026-05-03 21:54 33.51297 -84.49261 9942 ft 305 kts 153°
2026-05-03 21:54 33.49409 -84.48072 10631 ft 315 kts 154°
2026-05-03 21:55 33.47413 -84.46822 11068 ft 334 kts 154°
2026-05-03 21:55 33.45300 -84.45502 11488 ft 352 kts 154°
2026-05-03 21:55 33.43074 -84.44111 11880 ft 371 kts 154°
2026-05-03 21:55 33.40739 -84.42651 12371 ft 385 kts 154°
2026-05-03 21:56 33.38351 -84.41161 13193 ft 387 kts 154°
2026-05-03 21:56 33.35974 -84.39677 13944 ft 391 kts 154°
2026-05-03 21:56 33.33534 -84.38156 14638 ft 396 kts 154°
2026-05-03 21:56 33.31107 -84.36644 15371 ft 399 kts 155°
2026-05-03 21:57 33.28646 -84.35111 16088 ft 402 kts 155°
2026-05-03 21:57 33.26133 -84.33549 16768 ft 406 kts 155°
2026-05-03 21:57 33.23615 -84.31982 17424 ft 410 kts 155°
2026-05-03 21:57 33.21074 -84.30403 18067 ft 414 kts 155°
2026-05-03 21:58 33.18509 -84.28811 18660 ft 418 kts 155°
2026-05-03 21:58 33.15933 -84.27214 19328 ft 421 kts 156°
2026-05-03 21:58 33.13297 -84.25581 19950 ft 424 kts 156°
2026-05-03 21:58 33.10703 -84.23974 20495 ft 428 kts 156°
2026-05-03 21:59 33.08044 -84.22328 21052 ft 432 kts 156°
2026-05-03 21:59 33.05367 -84.20670 21593 ft 435 kts 156°
2026-05-03 21:59 33.02636 -84.18983 22151 ft 438 kts 156°
2026-05-03 21:59 32.99917 -84.17336 22648 ft 440 kts 159°
2026-05-03 22:00 32.97038 -84.16093 23105 ft 442 kts 165°
2026-05-03 22:00 32.94142 -84.14899 23626 ft 445 kts 165°
2026-05-03 22:00 32.91186 -84.13683 24193 ft 446 kts 165°
2026-05-03 22:00 32.88240 -84.12470 24664 ft 450 kts 165°
2026-05-03 22:01 32.85301 -84.11259 25141 ft 452 kts 166°
2026-05-03 22:01 32.82314 -84.10031 25638 ft 454 kts 166°
2026-05-03 22:01 32.79325 -84.08804 26030 ft 458 kts 166°
2026-05-03 22:01 32.76286 -84.07555 26505 ft 460 kts 166°
2026-05-03 22:02 32.73235 -84.06302 26941 ft 463 kts 166°
2026-05-03 22:02 32.70187 -84.05051 27423 ft 464 kts 166°
2026-05-03 22:02 32.67113 -84.03791 27874 ft 466 kts 167°
2026-05-03 22:02 32.64035 -84.02530 28338 ft 468 kts 167°
2026-05-03 22:03 32.60953 -84.01269 28678 ft 472 kts 167°
2026-05-03 22:03 32.57836 -83.99994 29117 ft 473 kts 167°
2026-05-03 22:03 32.54709 -83.98718 29431 ft 476 kts 167°
2026-05-03 22:03 32.51602 -83.97446 29971 ft 474 kts 168°
2026-05-03 22:04 32.48477 -83.96169 30596 ft 470 kts 168°
2026-05-03 22:04 32.45413 -83.94920 31110 ft 468 kts 168°
2026-05-03 22:04 32.42319 -83.93658 31657 ft 466 kts 169°
2026-05-03 22:04 32.39261 -83.92413 32172 ft 464 kts 169°
2026-05-03 22:05 32.36241 -83.91193 32720 ft 460 kts 170°
2026-05-03 22:05 32.33179 -83.90095 33234 ft 456 kts 172°
2026-05-03 22:05 32.30159 -83.89012 33667 ft 455 kts 172°
2026-05-03 22:05 32.27123 -83.87923 34251 ft 449 kts 172°
2026-05-03 22:06 32.24144 -83.86857 34564 ft 450 kts 173°
2026-05-03 22:06 32.21127 -83.85775 34976 ft 447 kts 172°
2026-05-03 22:06 32.18118 -83.84699 35338 ft 446 kts 173°
2026-05-03 22:06 32.15122 -83.83627 35634 ft 446 kts 173°
2026-05-03 22:07 32.12103 -83.82546 35974 ft 446 kts 173°
2026-05-03 22:07 32.09130 -83.81485 36349 ft 445 kts 173°
2026-05-03 22:07 32.06168 -83.80426 36762 ft 443 kts 174°
2026-05-03 22:07 32.03224 -83.79375 37175 ft 441 kts 174°
2026-05-03 22:08 32.00249 -83.78314 37471 ft 442 kts 174°
2026-05-03 22:08 31.97305 -83.77266 37713 ft 442 kts 174°
2026-05-03 22:08 31.94327 -83.76206 37910 ft 443 kts 174°
2026-05-03 22:08 31.91373 -83.75153 38246 ft 440 kts 174°
2026-05-03 22:09 31.88467 -83.74117 38535 ft 439 kts 174°
2026-05-03 22:09 31.85511 -83.73070 38708 ft 441 kts 174°
2026-05-03 22:09 31.82549 -83.72018 38945 ft 440 kts 174°
2026-05-03 22:10 31.76743 -83.69955 39453 ft 438 kts 175°
2026-05-03 22:10 31.73804 -83.68916 39664 ft 438 kts 174°
2026-05-03 22:10 31.70867 -83.67875 39829 ft 439 kts 175°
2026-05-03 22:10 31.67922 -83.66806 40039 ft 440 kts 173°
2026-05-03 22:11 31.65017 -83.65681 40201 ft 441 kts 173°
2026-05-03 22:11 31.62111 -83.64562 40378 ft 441 kts 173°
2026-05-03 22:11 31.59215 -83.63451 40548 ft 441 kts 173°
2026-05-03 22:11 31.56259 -83.62316 40691 ft 442 kts 173°
2026-05-03 22:12 31.53353 -83.61202 40848 ft 442 kts 173°
2026-05-03 22:12 31.50414 -83.60077 40987 ft 443 kts 173°
2026-05-03 22:12 31.47510 -83.58965 41102 ft 444 kts 173°
2026-05-03 22:13 31.41562 -83.56690 41104 ft 451 kts 173°
2026-05-03 22:13 31.35573 -83.54402 41096 ft 456 kts 173°
2026-05-03 22:14 31.29475 -83.52077 41088 ft 460 kts 173°
2026-05-03 22:14 31.23344 -83.49740 41081 ft 463 kts 173°
2026-05-03 22:15 31.17154 -83.47383 41082 ft 464 kts 173°
2026-05-03 22:15 31.11053 -83.45062 41077 ft 459 kts 173°
2026-05-03 22:16 31.04979 -83.42759 41083 ft 456 kts 173°
2026-05-03 22:16 30.98938 -83.40472 41089 ft 458 kts 173°
2026-05-03 22:17 30.92876 -83.38178 41089 ft 457 kts 174°
2026-05-03 22:17 30.86784 -83.35874 41105 ft 458 kts 173°
2026-05-03 22:18 30.80738 -83.33593 41075 ft 458 kts 174°
2026-05-03 22:18 30.74740 -83.31331 41078 ft 450 kts 174°
2026-05-03 22:19 30.68819 -83.28819 41075 ft 461 kts 167°
2026-05-03 22:19 30.63000 -83.25613 41085 ft 464 kts 167°
2026-05-03 22:20 30.57111 -83.22435 41091 ft 465 kts 167°
2026-05-03 22:20 30.51302 -83.19312 41054 ft 461 kts 168°
2026-05-03 22:21 30.45453 -83.16174 41090 ft 462 kts 168°
2026-05-03 22:21 30.39596 -83.13031 41051 ft 463 kts 168°
2026-05-03 22:22 30.33771 -83.09912 41024 ft 463 kts 168°
2026-05-03 22:22 30.27916 -83.06780 41051 ft 463 kts 168°
2026-05-03 22:23 30.22048 -83.03646 41063 ft 464 kts 168°
2026-05-03 22:23 30.16181 -83.00516 41054 ft 460 kts 168°
2026-05-03 22:24 30.10369 -82.97421 41061 ft 459 kts 168°
2026-05-03 22:24 30.04536 -82.94318 41071 ft 463 kts 168°
2026-05-03 22:25 29.98659 -82.91193 41089 ft 461 kts 169°
2026-05-03 22:25 29.92870 -82.88121 41063 ft 457 kts 169°
2026-05-03 22:26 29.87072 -82.85052 41082 ft 460 kts 169°
2026-05-03 22:26 29.81243 -82.81967 41058 ft 463 kts 169°
2026-05-03 22:27 29.75374 -82.78864 41065 ft 463 kts 169°
2026-05-03 22:27 29.69511 -82.75768 41056 ft 460 kts 169°
2026-05-03 22:28 29.63639 -82.72677 41064 ft 464 kts 169°
2026-05-03 22:28 29.57814 -82.69604 40977 ft 453 kts 169°
2026-05-03 22:28 29.54968 -82.68105 40332 ft 449 kts 170°
2026-05-03 22:29 29.52171 -82.66631 39865 ft 441 kts 170°
2026-05-03 22:29 29.49425 -82.65187 39533 ft 429 kts 171°
2026-05-03 22:29 29.46708 -82.63760 39102 ft 421 kts 171°
2026-05-03 22:29 29.44081 -82.62386 38558 ft 416 kts 171°
2026-05-03 22:30 29.41474 -82.61019 37991 ft 413 kts 171°
2026-05-03 22:30 29.38864 -82.59657 37322 ft 414 kts 171°
2026-05-03 22:30 29.36233 -82.58283 36528 ft 419 kts 170°
2026-05-03 22:30 29.33557 -82.56885 35722 ft 422 kts 170°
2026-05-03 22:31 29.30900 -82.55492 35057 ft 422 kts 169°
2026-05-03 22:31 29.28205 -82.54085 34136 ft 428 kts 168°
2026-05-03 22:31 29.25485 -82.52898 33396 ft 409 kts 179°
2026-05-03 22:31 29.22752 -82.52581 32517 ft 390 kts 192°
2026-05-03 22:32 29.20032 -82.52673 31555 ft 397 kts 192°
2026-05-03 22:32 29.17255 -82.52706 30984 ft 402 kts 190°
2026-05-03 22:32 29.14449 -82.52715 31183 ft 409 kts 190°
2026-05-03 22:32 29.11530 -82.52721 31028 ft 423 kts 189°
2026-05-03 22:33 29.08625 -82.52716 31047 ft 415 kts 190°
2026-05-03 22:33 29.02875 -82.52712 31058 ft 411 kts 189°
2026-05-03 22:34 28.97148 -82.52710 31057 ft 412 kts 190°
2026-05-03 22:34 28.91412 -82.52708 31058 ft 411 kts 189°
2026-05-03 22:35 28.85729 -82.52706 31075 ft 409 kts 190°
2026-05-03 22:35 28.80030 -82.52700 31066 ft 412 kts 189°
2026-05-03 22:36 28.74269 -82.52698 31069 ft 414 kts 190°
2026-05-03 22:36 28.68569 -82.52695 31060 ft 409 kts 190°
2026-05-03 22:37 28.62818 -82.52692 31066 ft 414 kts 189°
2026-05-03 22:37 28.57057 -82.52689 31056 ft 413 kts 189°
2026-05-03 22:38 28.51311 -82.52686 31055 ft 411 kts 190°
2026-05-03 22:38 28.45573 -82.52685 31062 ft 412 kts 189°
2026-05-03 22:39 28.39837 -82.52683 31060 ft 411 kts 190°
2026-05-03 22:39 28.34088 -82.52677 31051 ft 413 kts 189°
2026-05-03 22:40 28.28354 -82.52676 31052 ft 412 kts 190°
2026-05-03 22:40 28.22628 -82.52670 31043 ft 413 kts 190°
2026-05-03 22:41 28.16881 -82.52668 31043 ft 413 kts 190°
2026-05-03 22:41 28.11154 -82.52666 31040 ft 411 kts 190°
2026-05-03 22:42 28.05367 -82.52664 31043 ft 415 kts 190°
2026-05-03 22:42 27.99581 -82.52547 31032 ft 422 kts 183°
2026-05-03 22:42 27.96703 -82.51661 31026 ft 439 kts 171°
2026-05-03 22:43 27.93775 -82.50528 31052 ft 439 kts 172°
2026-05-03 22:43 27.87977 -82.48427 31046 ft 439 kts 173°
2026-05-03 22:44 27.82144 -82.46351 31043 ft 438 kts 173°
2026-05-03 22:44 27.76297 -82.44282 31040 ft 441 kts 173°
2026-05-03 22:45 27.70457 -82.42213 31036 ft 437 kts 173°
2026-05-03 22:45 27.64635 -82.40158 31041 ft 441 kts 173°
2026-05-03 22:46 27.58791 -82.38094 31039 ft 440 kts 173°
2026-05-03 22:46 27.52941 -82.36031 31041 ft 443 kts 173°
2026-05-03 22:47 27.47080 -82.33964 31025 ft 438 kts 173°
2026-05-03 22:47 27.41275 -82.31923 31030 ft 441 kts 173°
2026-05-03 22:48 27.35479 -82.29361 31014 ft 462 kts 160°
2026-05-03 22:48 27.29947 -82.25738 31017 ft 460 kts 160°
2026-05-03 22:49 27.24364 -82.22183 31021 ft 460 kts 161°
2026-05-03 22:49 27.18817 -82.18665 31021 ft 458 kts 161°
2026-05-03 22:50 27.13243 -82.15134 31024 ft 462 kts 161°
2026-05-03 22:50 27.07645 -82.11591 31024 ft 461 kts 161°
2026-05-03 22:51 27.02041 -82.08052 31027 ft 460 kts 161°
2026-05-03 22:51 26.96483 -82.04479 31029 ft 467 kts 156°
2026-05-03 22:51 26.94017 -82.02045 31011 ft 477 kts 141°
2026-05-03 22:52 26.91830 -81.99289 31029 ft 466 kts 141°
2026-05-03 22:52 26.87420 -81.94012 31042 ft 465 kts 142°
2026-05-03 22:53 26.82969 -81.88748 31040 ft 463 kts 142°
2026-05-03 22:53 26.80785 -81.86173 30513 ft 460 kts 142°
2026-05-03 22:53 26.78553 -81.83548 29712 ft 463 kts 141°
2026-05-03 22:53 26.76334 -81.80942 28894 ft 464 kts 141°
2026-05-03 22:54 26.74118 -81.78360 28166 ft 462 kts 141°
2026-05-03 22:54 26.71914 -81.75796 27428 ft 460 kts 141°
2026-05-03 22:54 26.69697 -81.73212 26970 ft 451 kts 141°
2026-05-03 22:54 26.67558 -81.70724 26501 ft 444 kts 141°
2026-05-03 22:55 26.65431 -81.68256 25827 ft 442 kts 141°
2026-05-03 22:55 26.63314 -81.65791 25202 ft 439 kts 140°
2026-05-03 22:55 26.61412 -81.63132 24636 ft 440 kts 132°
2026-05-03 22:55 26.59614 -81.60391 24030 ft 437 kts 133°
2026-05-03 22:56 26.57794 -81.57665 23484 ft 431 kts 133°
2026-05-03 22:56 26.56010 -81.55003 22918 ft 428 kts 133°
2026-05-03 22:56 26.54261 -81.52405 22411 ft 423 kts 133°
2026-05-03 22:56 26.52489 -81.49774 21837 ft 420 kts 133°
2026-05-03 22:57 26.50748 -81.47190 21309 ft 417 kts 133°
2026-05-03 22:57 26.49012 -81.44618 20796 ft 413 kts 132°
2026-05-03 22:57 26.47301 -81.42080 20330 ft 408 kts 132°
2026-05-03 22:57 26.45607 -81.39573 19781 ft 405 kts 132°
2026-05-03 22:58 26.43924 -81.37080 19262 ft 402 kts 132°
2026-05-03 22:58 26.42238 -81.34586 18773 ft 398 kts 132°
2026-05-03 22:58 26.40568 -81.32170 18219 ft 393 kts 135°
2026-05-03 22:58 26.38820 -81.29858 17684 ft 390 kts 135°
2026-05-03 22:59 26.37090 -81.27550 17197 ft 386 kts 135°
2026-05-03 22:59 26.35379 -81.25266 16709 ft 382 kts 135°
2026-05-03 22:59 26.33678 -81.22993 16238 ft 378 kts 135°
2026-05-03 22:59 26.32002 -81.20753 15704 ft 376 kts 134°
2026-05-03 23:00 26.30346 -81.18542 15250 ft 372 kts 134°
2026-05-03 23:00 26.28695 -81.16341 14795 ft 367 kts 134°
2026-05-03 23:00 26.27048 -81.14173 14323 ft 364 kts 134°
2026-05-03 23:00 26.25435 -81.12048 13875 ft 360 kts 134°
2026-05-03 23:01 26.23807 -81.09906 13376 ft 357 kts 134°
2026-05-03 23:01 26.22209 -81.07805 12980 ft 361 kts 134°
2026-05-03 23:01 26.20600 -81.05688 13026 ft 358 kts 134°
2026-05-03 23:01 26.18994 -81.03577 13003 ft 357 kts 134°
2026-05-03 23:02 26.17397 -81.01477 12988 ft 355 kts 134°
2026-05-03 23:02 26.15835 -80.99425 12982 ft 340 kts 134°
2026-05-03 23:02 26.14321 -80.97465 12965 ft 323 kts 138°
2026-05-03 23:02 26.12559 -80.96058 12977 ft 306 kts 162°
2026-05-03 23:03 26.10520 -80.95605 12996 ft 297 kts 186°
2026-05-03 23:03 26.08547 -80.96148 12991 ft 286 kts 211°
2026-05-03 23:03 26.07070 -80.97528 12996 ft 280 kts 235°
2026-05-03 23:03 26.06308 -80.99512 12997 ft 278 kts 260°
2026-05-03 23:04 26.06442 -81.01649 12992 ft 283 kts 284°
2026-05-03 23:04 26.07368 -81.03610 12997 ft 290 kts 299°
2026-05-03 23:04 26.08484 -81.05482 12982 ft 290 kts 299°
2026-05-03 23:04 26.09594 -81.07362 12978 ft 292 kts 299°
2026-05-03 23:05 26.10719 -81.09253 12973 ft 290 kts 299°
2026-05-03 23:05 26.11832 -81.11121 12969 ft 291 kts 299°
2026-05-03 23:05 26.12998 -81.12962 12974 ft 294 kts 307°
2026-05-03 23:05 26.14484 -81.14549 12986 ft 296 kts 310°
2026-05-03 23:06 26.15916 -81.16180 12980 ft 295 kts 309°
2026-05-03 23:06 26.17364 -81.17832 12979 ft 295 kts 309°
2026-05-03 23:06 26.18785 -81.19478 12989 ft 295 kts 308°
2026-05-03 23:06 26.20231 -81.21079 12974 ft 298 kts 318°
2026-05-03 23:07 26.22156 -81.22053 12984 ft 311 kts 343°
2026-05-03 23:07 26.24335 -81.22234 13004 ft 317 kts 354°
2026-05-03 23:07 26.26547 -81.22133 12969 ft 321 kts
2026-05-03 23:07 26.28632 -81.21185 12995 ft 329 kts 31°
2026-05-03 23:08 26.30304 -81.19423 13009 ft 335 kts 50°
2026-05-03 23:08 26.31395 -81.17123 12979 ft 337 kts 75°
2026-05-03 23:08 26.31603 -81.14558 13004 ft 333 kts 99°
2026-05-03 23:08 26.30929 -81.12162 12989 ft 324 kts 123°
2026-05-03 23:09 26.29485 -81.10293 12991 ft 313 kts 148°
2026-05-03 23:09 26.27576 -81.09215 12996 ft 305 kts 165°
2026-05-03 23:09 26.25569 -81.08415 12980 ft 306 kts 165°
2026-05-03 23:09 26.23581 -81.07566 12974 ft 307 kts 160°
2026-05-03 23:10 26.21752 -81.06280 12980 ft 314 kts 146°
2026-05-03 23:10 26.20118 -81.04648 12981 ft 316 kts 140°
2026-05-03 23:10 26.18589 -81.02870 12981 ft 319 kts 137°
2026-05-03 23:10 26.17112 -81.01030 12979 ft 320 kts 135°
2026-05-03 23:11 26.15669 -80.99174 12978 ft 319 kts 134°
2026-05-03 23:11 26.14260 -80.97237 12961 ft 318 kts 127°
2026-05-03 23:11 26.13442 -80.94996 12970 ft 316 kts 106°
2026-05-03 23:11 26.13037 -80.92559 12982 ft 318 kts 101°
2026-05-03 23:12 26.12729 -80.90136 12975 ft 318 kts 99°
2026-05-03 23:12 26.12461 -80.87704 12941 ft 318 kts 99°
2026-05-03 23:12 26.12209 -80.85259 12665 ft 316 kts 98°
2026-05-03 23:12 26.11970 -80.82840 12290 ft 317 kts 98°
2026-05-03 23:13 26.11734 -80.80428 11997 ft 314 kts 98°
2026-05-03 23:13 26.11434 -80.78007 11686 ft 311 kts 103°
2026-05-03 23:13 26.11018 -80.75655 11350 ft 310 kts 103°
2026-05-03 23:13 26.10617 -80.73338 11007 ft 309 kts 104°
2026-05-03 23:14 26.09925 -80.71034 9912 ft 332 kts 117°
2026-05-03 23:14 26.09226 -80.68632 9664 ft 318 kts 97°
2026-05-03 23:14 26.09276 -80.66239 9511 ft 302 kts 88°
2026-05-03 23:14 26.09193 -80.63950 9007 ft 299 kts 98°
2026-05-03 23:15 26.08929 -80.61651 8525 ft 297 kts 98°
2026-05-03 23:15 26.08676 -80.59408 8083 ft 293 kts 98°
2026-05-03 23:15 26.08414 -80.57116 7452 ft 303 kts 98°
2026-05-03 23:15 26.08153 -80.54826 6693 ft 300 kts 98°
2026-05-03 23:16 26.07892 -80.52536 5987 ft 295 kts 97°
2026-05-03 23:16 26.07824 -80.50310 5306 ft 291 kts 89°
2026-05-03 23:16 26.07838 -80.48092 4611 ft 286 kts 90°
2026-05-03 23:16 26.07833 -80.45907 3919 ft 282 kts 89°
2026-05-03 23:17 26.07824 -80.43756 3230 ft 277 kts 89°
2026-05-03 23:17 26.07815 -80.41663 2944 ft 256 kts 89°
2026-05-03 23:17 26.07808 -80.39806 2976 ft 229 kts 88°
2026-05-03 23:17 26.07851 -80.38111 2943 ft 208 kts 88°
2026-05-03 23:18 26.07829 -80.36552 2965 ft 199 kts 89°
2026-05-03 23:18 26.07814 -80.34925 3030 ft 221 kts 90°
2026-05-03 23:18 26.07791 -80.33242 2819 ft 213 kts 90°
2026-05-03 23:18 26.07775 -80.31635 2547 ft 201 kts 88°
2026-05-03 23:19 26.07766 -80.30146 2303 ft 190 kts 88°
2026-05-03 23:19 26.07758 -80.28715 2067 ft 180 kts 88°
2026-05-03 23:19 26.07750 -80.27341 1888 ft 174 kts 87°
2026-05-03 23:19 26.07744 -80.26071 1740 ft 156 kts 86°
2026-05-03 23:20 26.07738 -80.24915 1481 ft 143 kts 86°
2026-05-03 23:20 26.07734 -80.23831 1303 ft 138 kts 86°
2026-05-03 23:20 26.07730 -80.22769 1109 ft 137 kts 86°
2026-05-03 23:20 26.07723 -80.21729 934 ft 135 kts 86°
2026-05-03 23:21 26.07720 -80.20664 754 ft 137 kts 87°
2026-05-03 23:21 26.07712 -80.19618 577 ft 138 kts 87°
2026-05-03 23:21 26.07706 -80.18559 400 ft 138 kts 88°
2026-05-03 23:21 26.07698 -80.17505 228 ft 136 kts 87°
2026-05-03 23:22 26.07697 -80.15482 17 ft 94 kts 92°
2026-05-03 23:22 26.07672 -80.15050 16 ft 35 kts 104°
2026-05-03 23:22 26.07623 -80.14925 16 ft 0 kts 121°
2026-05-03 23:23 26.07617 -80.14915 16 ft 9 kts 121°
2026-05-03 23:23 26.07558 -80.14814 16 ft 11 kts 130°
2026-05-03 23:24 26.07508 -80.14764 16 ft 2 kts 148°
2026-05-03 23:24 26.07490 -80.14732 16 ft 9 kts 115°
2026-05-03 23:24 26.07444 -80.14687 16 ft 6 kts 185°
2026-05-03 23:24 26.07415 -80.14693 16 ft 2 kts 192°
2026-05-03 23:25 26.07407 -80.14695 16 ft 0 kts 192°